AirNav   Everest Fuels
 
 767 users online  

MN55 Sandy Flats Airport
Hastings, Minnesota, USA

GOING TO HASTINGS?


FAA INFORMATION EFFECTIVE 19 MAY 2022

Location

FAA Identifier: MN55
Lat/Long: 44-42-18.8820N 092-48-42.7300W
44-42.314700N 092-48.712167W
44.7052450,-92.8118694
(estimated)
Elevation: 835 ft. / 255 m (estimated)
Variation: 02E (1995)
From city: 3 miles SE of HASTINGS, MN
Time zone: UTC -5 (UTC -6 during Standard Time)
Zip code: 55033

Airport Operations

Airport use: Private use. Permission required prior to landing
Activation date: 02/1998
Control tower: no
ARTCC: MINNEAPOLIS CENTER
FSS: PRINCETON FLIGHT SERVICE STATION
Attendance: UNATNDD
Wind indicator: yes
Segmented circle: no

Airport Communications

WX AWOS-3 at SGS (13 nm NW): 119.425 (651-457-8120)
WX AWOS-3 at RGK (16 nm SE): 119.25 (715-594-3763)
WX AWOS-3 at SYN (16 nm SW): 119.35 (507-664-3806)
WX ASOS at STP (17 nm NW): 118.35 (651-312-8888)
WX AWOS-3 at 21D (18 nm N): 120.075 (651-779-5949)
WX AWOS-3 at LVN (18 nm W): 118.0 (952-469-5850)

Nearby radio navigation aids

VOR radial/distance  VOR name  Freq  Var
FGTr068/16.4FARMINGTON VORTAC115.7006E
MSPr120/21.4MINNEAPOLIS VOR/DME115.3002E
FCMr104/27.8FLYING CLOUD VOR/DME117.7001E
GEPr132/35.6GOPHER VORTAC117.3006E
FOWr037/38.4HALFWAY VOR/DME111.2002E

 
NDB name  Hdg/Dist  Freq  Var  ID
REGUE311/9.527402ERG .-. --.

Airport Services

Runway Information

Runway 18/36

Dimensions: 1900 x 100 ft. / 579 x 30 m
Surface: turf, in good condition
RUNWAY 18  RUNWAY 36
Traffic pattern: leftleft
Obstructions: 50 ft. trees, 4700 ft. from runway145 ft. pline, 4000 ft. from runway

Airport Ownership and Management from official FAA records

Ownership: Privately-owned
Owner: ROGER FOX
16950 NICOLIA AVE
HASTINGS, MN 55033
Phone 612-437-5700
Manager: ROGER FOX
16950 NICOLIA AVE
HASTINGS, MN 55033
Phone 612-437-5700

Airport Operational Statistics

Aircraft based on the field: 1
Single engine airplanes: 1
    

Additional Remarks

DO NOT CHART PER MINNESOTA DEPARTMENT OF TRANSPORTATION
DO NOT CHART ON ANY CHARTS (INCLUDING TERMINAL AREA) PER MINNESOTA DEPARTMENT OF TRASPORTATION
FOR CD CTC MINNEAPOLIS ARTCC AT 651-463-5588.

Instrument Procedures

There are no published instrument procedures at MN55.

Some nearby airports with instrument procedures:

KSGS - South St Paul Municipal Airport-Richard E Fleming Field (13 nm NW)
KRGK - Red Wing Regional Airport (16 nm SE)
KSTP - St Paul Downtown Airport Holman Field (17 nm NW)
21D - Lake Elmo Airport (18 nm N)
KLVN - Airlake Airport (18 nm W)
 
Loc | Ops | Rwys | IFR | FBO | Links
Com | Nav | Svcs | Stats | Notes
Area around MN55 (Sandy Flats Airport)
 
Road maps at: MapQuest Bing Google
 
Aerial photo
No photo
 
Sectional chart

 
Airport distance calculator
Flying to Sandy Flats Airport? Find the distance to fly.

From to MN55

Sunrise and sunset
Times for 19-May-2022
 Local
(UTC-5)
 Zulu
(UTC)
Morning civil twilight05:0510:05
Sunrise05:4010:40
Sunset20:3601:36
Evening civil twilight21:1002:10

Current date and time
Zulu (UTC)  19-May-2022 11:12:38
Local (UTC-5)  19-May-2022 06:12:38
 
METAR
KSYN 
16nm SW 
191055Z AUTO 00000KT 10SM CLR 09/08 A2964 RMK AO2 T00900079
KSGS 
17nm NW 
191055Z AUTO 00000KT 10SM CLR 11/08 A2964 RMK AO2 T01130082
KRGK 
17nm SE 
191055Z AUTO 00000KT 10SM CLR 09/08 A2964 RMK AO2
KSTP 
17nm NW 
191053Z 00000KT 10SM CLR 12/09 A2965 RMK AO2 SLP036 T01220089
K21D 
18nm N 
191055Z AUTO 00000KT 10SM CLR 08/07 A2966 RMK AO2
KLVN 
18nm W 
191055Z AUTO 00000KT 10SM CLR 10/09 A2965 RMK AO2
KMSP 
21nm NW 
191053Z 32003KT 10SM FEW250 12/08 A2965 RMK AO2 SLP037 T01220078
KFCM 
29nm W 
191053Z 00000KT 10SM CLR 11/09 A2964 RMK AO2 SLP033 T01110089
KRNH 
29nm NE 
191055Z AUTO 27003KT 10SM CLR 08/06 A2965 RMK AO2 T00820064
KANE 
31nm NW 
191055Z AUTO 00000KT 10SM CLR 11/08 A2964 RMK AO2
TAF
KMSP 
21nm NW 
191001Z 1910/2012 VRB04KT P6SM SCT120 FM191900 15012G19KT P6SM BKN050 PROB30 1921/1924 4SM -TSRA BR BKN030CB FM200300 04006KT 6SM -SHRA BR SCT025 OVC035 FM200900 26004KT P6SM OVC050
NOTAMs
Click for the latest NOTAMs
NOTAMs are issued by the DoD/FAA and will open in a separate window not controlled by AirNav.

 

 
 

Would you like to see your business listed on this page?

 If your business provides an interesting product or service to pilots, flight crews, aircraft, or users of the Sandy Flats Airport, you should consider listing it here.  To start the listing process, click on the button below
 
Add a business
 

Other Pages about Sandy Flats Airport

Update a link
 
Copyright © AirNav, LLC. All rights reserved. Privacy Policy  Contact